User: anonymous   Login
Location: Maiden
(35.5760°N, 81.2120°W)
Time: 12:35:07
(UTC-04:00)
Language:

Cosmos 1953 - Orbit

View from above orbital plane
View from above orbital plane
View from above satellite
View from above satellite

Ground track
Ground track

The orbit data is extracted from the following two-line orbital elements,

1 19210U 88050A   18267.49386038 +.00000117 +00000-0 +60712-5 0  9999
2 19210 082.5147 303.0790 0015154 113.0841 247.1985 15.05621513647707
Epoch (UTC): 24 September 2018 11:51:09
Eccentricity: 0.0015154
inclination: 82.5147°
perigee height: 539 km
apogee height: 560 km
right ascension of ascending node: 303.0790°
argument of perigee: 113.0841°
revolutions per day: 15.05621513
mean anomaly at epoch: 247.1985°
orbit number at epoch: 64770

The dashed part of the orbit path shows where the satellite is in the earth's shadow,  

DLR